Tucson Davis Monthan, AZ

8:31 PM MST on June 24, 2018 (GMT -0700)
Davis-Monthan Air Force Base

Weather History for KDMA - December, 2017

Change the Weather History Date:

Tuesday, December 12, 2017

  Actual Average Record
Temperature  
Mean Temperature 60 °F -  
Max Temperature 70 °F 64 °F 78 °F (1950)
Min Temperature 50 °F 38 °F 26 °F (1949)
Degree Days  
Heating Degree Days 5    
Growing Degree Days 10 (Base 50)    
Moisture  
Dew Point 12 °F    
Average Humidity 16    
Maximum Humidity 27    
Minimum Humidity 8    
Precipitation  
Precipitation 0.00 in - - ()
Sea Level Pressure  
Sea Level Pressure 30.11 in    
Wind  
Wind Speed 11 mph (ESE)    
Max Wind Speed 17 mph    
Max Gust Speed -    
Visibility 10 miles    
Events      
Averages and records for this station are not official NWS values.
T = Trace of Precipitation, MM = Missing Value Source: NWS Daily Summary

Daily Weather History Graph

Daily Weather History Graph

Search for Another Location

Airport or City:

Astronomy

Dec. 12, 2017 Rise Set
Actual Time 7:15 AM MST 5:19 PM MST
Civil Twilight 6:48 AM MST 5:46 PM MST
Nautical Twilight 6:17 AM MST 6:17 PM MST
Astronomical Twilight 5:47 AM MST 6:47 PM MST
Moon 2:05 AM MST (12/12) 2:11 PM MST (12/12)
Length of Visible Light 10h 58m
Length of Day
10h 04m
Waning Crescent, 26% of the Moon is Illuminated
Dec 12
Waning Crescent
Dec 17
New
Dec 26
First Quarter
Jan 1
Full
Jan 8
Last Quarter

Hourly Weather History & Observations

Time (MST) Temp. Dew Point Humidity Pressure Visibility Wind Dir Wind Speed Gust Speed Precip Events Conditions
12:58 AM 58.8 °F 21.0 °F 23% 30.17 in 10.0 mi SE 12.7 mph - N/A   Overcast
1:58 AM 56.8 °F 20.5 °F 24% 30.17 in 10.0 mi SE 10.4 mph - N/A   Overcast
2:58 AM 56.5 °F 21.0 °F 25% 30.17 in 10.0 mi SE 15.0 mph - N/A   Overcast
3:58 AM 54.9 °F 20.7 °F 26% 30.17 in 10.0 mi ESE 11.5 mph - N/A   Mostly Cloudy
4:58 AM 53.8 °F 19.8 °F 26% 30.17 in 10.0 mi SE 10.4 mph - N/A   Partly Cloudy
5:58 AM 50.9 °F 18.1 °F 27% 30.19 in 10.0 mi SE 5.8 mph - N/A   Clear
6:58 AM 52.7 °F 16.0 °F 23% 30.20 in 10.0 mi SE 10.4 mph - N/A   Clear
7:58 AM 53.1 °F 15.3 °F 22% 30.21 in 10.0 mi SE 10.4 mph - N/A   Clear
8:58 AM 57.0 °F 12.6 °F 17% 30.20 in 10.0 mi SE 6.9 mph - N/A   Partly Cloudy
9:58 AM 61.5 °F 11.8 °F 14% 30.20 in 10.0 mi East 9.2 mph - N/A   Mostly Cloudy
10:58 AM 67.8 °F 6.8 °F 9% 30.17 in 10.0 mi East 5.8 mph - N/A   Scattered Clouds
11:58 AM 69.1 °F 5.2 °F 8% 30.13 in 10.0 mi ENE 17.3 mph - N/A   Scattered Clouds
12:58 PM 69.4 °F 5.5 °F 8% 30.09 in 10.0 mi ENE 12.7 mph - N/A   Scattered Clouds
1:58 PM 70.9 °F 9.1 °F 9% 30.06 in 10.0 mi ENE 15.0 mph - N/A   Scattered Clouds
2:58 PM 70.9 °F 6.6 °F 8% 30.04 in 10.0 mi ENE 15.0 mph - N/A   Partly Cloudy
3:58 PM 69.4 °F 8.1 °F 9% 30.03 in 10.0 mi ENE 16.1 mph - N/A   Scattered Clouds
4:58 PM 68.5 °F 7.3 °F 9% 30.02 in 10.0 mi ENE 13.8 mph - N/A   Scattered Clouds
5:58 PM 64.9 °F 7.0 °F 10% 30.05 in 10.0 mi ENE 12.7 mph - N/A   Mostly Cloudy
6:58 PM 61.2 °F 8.1 °F 12% 30.05 in 10.0 mi ENE 9.2 mph - N/A   Scattered Clouds
7:58 PM 57.6 °F 8.6 °F 14% 30.07 in 10.0 mi ESE 5.8 mph - N/A   Clear
8:58 PM 55.2 °F 8.4 °F 15% 30.05 in 10.0 mi SE 6.9 mph - N/A   Clear
9:58 PM 57.7 °F 10.4 °F 15% 30.04 in 10.0 mi SSE 6.9 mph - N/A   Clear
10:58 PM 58.6 °F 11.1 °F 15% 30.03 in 10.0 mi SE 13.8 mph - N/A   Clear
11:58 PM 55.9 °F 11.7 °F 17% 30.02 in 10.0 mi SE 5.8 mph - N/A   Clear